Regional Weather Roundup
Issued by NWS Boston, MA

Home | Current Version | Previous Version | Text Only | Print | Product List | Glossary On
Versions: 1 2 3 4 5 6 7 8 9 10 11 12 13 14 15 16 17 18 19 20 21 22 23 24 25 26 27 28 29 30 31 32 33 34 35 36 37 38 39 40 41 42 43 44 45 46 47 48 49 50
000
ASUS41 KBOX 071010
RWRBOX

REGIONAL WEATHER ROUNDUP
NATIONAL WEATHER SERVICE TAUNTON MA
600 AM EDT TUE JUL 07 2015

NOTE:  "FAIR" INDICATES FEW OR NO CLOUDS BELOW 12,000 FEET WITH NO
SIGNIFICANT WEATHER AND/OR OBSTRUCTIONS TO VISIBILITY.  THE FOLLOWING
OBSERVATION LOCATIONS DO NOT REPORT PRESENT WEATHER...PROVINCETOWN...
SMITHFIELD...BLOCK ISLAND...KEENE...AND OXFORD.

MAZALL-071100-
EASTERN MASSACHUSETTS

CITY           SKY/WX    TMP DP  RH WIND       PRES   REMARKS
BOSTON         MOCLDY    68  65  90 S3        30.12R
BEVERLY        MOCLDY    66  63  90 SE3       30.11R
LAWRENCE       PTCLDY    67  63  87 CALM      30.13R
BEDFORD        CLOUDY    67  64  90 S3        30.11R
BLUE HILL        N/A     65  65 100 S8        30.12R
NORWOOD        CLOUDY    67  65  93 CALM      30.11S
MARSHFIELD     MOCLDY    64  64 100 CALM      30.14R
PLYMOUTH       CLOUDY    66  65  96 SE3       30.13R
TAUNTON        CLOUDY    68  65  90 SE3       30.11R
NEW BEDFORD    CLOUDY    67  66  97 CALM      30.11S
$$

MAZALL-071100-
CAPE COD AND THE ISLANDS

CITY           SKY/WX    TMP DP  RH WIND       PRES   REMARKS
FALMOUTH       PTCLDY    68  68 100 SE6       30.13R
HYANNIS        CLOUDY    69  66  90 S5        30.13R
CHATHAM        PTCLDY    64  62  93 S6        30.15R
PROVINCETOWN   PTCLDY    66  10  11 S8        30.13S
NANTUCKET      CLOUDY    67  63  87 SE12      30.14R
MARTHAS VNYRD  CLOUDY    67  65  93 SE5       30.13R
$$

MAZALL-071100-
CENTRAL AND WESTERN MASSACHUSETTS

CITY           SKY/WX    TMP DP  RH WIND       PRES   REMARKS
WORCESTER      MOCLDY    68  62  81 S5        30.13R
FITCHBURG      CLOUDY    67  64  90 SE3       30.12R
ORANGE         CLOUDY    66  64  93 CALM      30.11R
SPRINGFIELD    CLOUDY    70  64  83 CALM      30.08S
WESTFIELD      CLOUDY    69  64  84 CALM      30.09R
NORTH ADAMS    CLOUDY    69  64  84 CALM      30.08R
PITTSFIELD     CLOUDY    68  65  90 VRB3      30.09R
$$

RIZALL-071100-
RHODE ISLAND

CITY           SKY/WX    TMP DP  RH WIND       PRES   REMARKS
PROVIDENCE     CLOUDY    70  67  90 CALM      30.12R
NEWPORT        CLOUDY    69  68  96 SE5       30.11S
BLOCK ISLAND   CLOUDY    72  70  94 SE7       30.11R
SMITHFIELD     CLOUDY    66  61  82 CALM      30.12R
WESTERLY       CLOUDY    70  67  90 CALM      30.11R
$$

CTZALL-071100-
CONNECTICUT

CITY           SKY/WX    TMP DP  RH WIND       PRES   REMARKS
BRADLEY INTL   CLOUDY    71  64  78 SE6       30.08R
HARTFORD       CLOUDY    71  66  84 SE9       30.08R
BRIDGEPORT     CLOUDY    73  70  90 E3        30.07S
DANBURY        CLOUDY    70  67  90 CALM      30.09S FOG
GROTON         CLOUDY    71  68  90 E8        30.09S
NEW HAVEN      FOG       71  68  90 E5        30.08R VSB 1
CHESTER        NOT AVBL
MERIDEN        CLOUDY    71  67  87 CALM      30.08S
WILLIMANTIC    CLOUDY    69  64  84 CALM      30.10S
OXFORD         CLOUDY    70  64  83 SE5       30.11R VSB 1/4
$$

MEZ002-015-021-024-NHZ003-005-008-011-012-014-VTZ005-008-071100-
NORTHERN NEW ENGLAND

CITY           SKY/WX    TMP DP  RH WIND       PRES   REMARKS
PORTLAND ME    CLEAR     60  59  96 CALM      30.10R FOG
BANGOR ME      PTCLDY    60  58  92 S5        30.11R FOG
CONCORD NH     CLOUDY    65  61  87 CALM      30.10S
MANCHESTER NH  MOCLDY    67  64  90 S6        30.09R FOG
NASHUA NH      CLOUDY    67  65  93 VRB3      30.11S
PORTSMOUTH NH  PTCLDY    64  62  94 S2        30.09S
JAFFREY NH     CLOUDY    65  63  93 S3        30.13R
KEENE NH       MOCLDY    64  61  88 CALM      30.11R
BURLINGTON VT  PTCLDY    72  63  73 S14G20    30.01S
MT. WASHINGTON FOG       52  52 100 SW26        N/A  VSB 0
$$

NYZ052-076-071100-
EASTERN NEW YORK

CITY           SKY/WX    TMP DP  RH WIND       PRES   REMARKS
ALBANY         MOCLDY    71  65  81 CALM      30.04S
NEW YORK CITY  CLOUDY    75  71  87 S8        30.04S
$$

ANZALL-071100-
MARINE OBSERVATIONS

STATION/POSITION TIME  TEMP    WIND        PRES    VSBY  WAVE
                       AIR SEA DIR/SP/G                  HT/PER
                 (UTC) (F)     (DEG/KT/KT) (MB)    (MI)  (FT/S)
BOSTON BUOY      0950   64 63  180/ 10/ 10 1019.9R         1/12
BUZZARDS BAY     0900          130/  8/  8 1020.1F
NANTUCKET SOUND  0950   68 68  140/ 10/ 12 1020.0R         1
MASS BAY-STELLWA 0904   65 64  170/  8/ 10 1018.5R  1 7/8  1/ 8
ISLE OF SHOALS   1000   65     180/ 11/ 11 1018.9R
S OF BLOCK IS    0908      67                N/A           2/ 8
$$

......................KEY.........................
  SKY/WX - SKY CONDITION/PRESENT WEATHER
  TMP    - TEMPERATURE IN FAHRENHEIT
  DWPT   - DEWPOINT IN FAHRENHEIT
  RH     - RELATIVE HUMIDITY IN PERCENT
  WIND   - DIRECTION AND SPEED IN MPH
  PRES   - MEAN SEA LEVEL PRESSURE IN INCHES OF HG
  WCI    - WIND CHILL INDEX
  VSB    - VISIBILITY IN MILES
  HX     - HEAT INDEX
  TC     - TEMPERATURE IN CELSIUS
  VRB    - VARIABLE WIND DIRECTION
  N/A    - NOT AVAILABLE


USA.gov is the U.S. government's official web portal to all federal, state and local government web resources and services.